Weather History for Kingston, Jamaica

Change the Weather History Date:

Tuesday, November 6, 2012

  Actual Average Record
Temperature  
Mean Temperature 82 °F -  
Max Temperature 88 °F 85 °F 93 °F (1996)
Min Temperature 77 °F 76 °F 75 °F (1998)
Cooling Degree Days 18    
Growing Degree Days 32 (Base 50)    
Moisture  
Dew Point 75 °F    
Average Humidity 75    
Maximum Humidity 84    
Minimum Humidity 61    
Precipitation  
Precipitation 0.00 in - - ()
Sea Level Pressure  
Sea Level Pressure 29.88 in    
Wind  
Wind Speed 6 mph ()    
Max Wind Speed 14 mph    
Max Gust Speed -    
Visibility 5.7 miles    
Events      
Averages and records for this station are not official NWS values.
T = Trace of Precipitation, MM = Missing Value Source: Averaged Metar Reports

Daily Weather History Graph

Daily Weather History Graph

Search for Another Location

Airport:

Trip Planner

Search our weather history database for the weather conditions in past years. The results will help you decide how hot, cold, wet, or windy it might be!

Date:

Astronomy

Nov. 06, 2012 Rise Set
Actual Time 6:08 AM EST 5:32 PM EST
Civil Twilight 5:46 AM EST 5:55 PM EST
Nautical Twilight 5:20 AM EST 6:21 PM EST
Astronomical Twilight 4:54 AM EST 6:47 PM EST
Moon 11:58 PM EST (11/6) 12:06 PM EST (11/6)
Length of Visible Light 12h 09m
Length of Day
11h 24m
Waning Gibbous, 53% of the Moon is Illuminated
Nov 6
Waning Gibbous
Nov 6
Last Quarter
Nov 13
New
Nov 20
First Quarter
Nov 28
Full

Hourly Weather History & Observations

Time (EST) Temp. Heat Index Dew Point Humidity Pressure Visibility Wind Dir Wind Speed Gust Speed Precip Events Conditions
12:00 AM 82.4 °F 89.5 °F 75.2 °F 79% 29.89 in 6.2 mi North 6.9 mph - N/A   Scattered Clouds
1:00 AM 82 °F - 75 °F 75% 29.88 in 4 mi North 5.8 mph - -   Mostly Cloudy
1:00 AM 82.4 °F 89.5 °F 75.2 °F 79% 29.86 in 6.2 mi North 5.8 mph - N/A   Mostly Cloudy
2:00 AM 80.6 °F 85.4 °F 73.4 °F 79% 29.86 in 6.2 mi East 4.6 mph - N/A   Partly Cloudy
3:00 AM 80.6 °F 86.2 °F 75.2 °F 84% 29.86 in 6.2 mi NNE 4.6 mph - N/A   Partly Cloudy
4:00 AM 80 °F - 75 °F 79% 29.87 in 4 mi NNE 3.5 mph - -   Scattered Clouds
4:00 AM 80.6 °F 86.2 °F 75.2 °F 84% 29.86 in 6.2 mi NNE 3.5 mph - N/A   Partly Cloudy
5:00 AM 78.8 °F - 73.4 °F 83% 29.86 in 6.2 mi NW 6.9 mph - N/A   Partly Cloudy
6:00 AM 80.6 °F 86.2 °F 75.2 °F 84% 29.89 in 6.2 mi NNE 4.6 mph - N/A   Partly Cloudy
7:00 AM 81 °F - 73 °F 71% 29.91 in 4 mi NNW 4.6 mph - -   Haze
7:00 AM 80.6 °F 85.4 °F 73.4 °F 79% 29.89 in 6.2 mi NNW 4.6 mph - N/A   Partly Cloudy
8:00 AM 84.2 °F 90.9 °F 73.4 °F 70% 29.92 in 6.2 mi North 5.8 mph - N/A   Partly Cloudy
9:00 AM 84.2 °F 92.3 °F 75.2 °F 74% 29.92 in 6.2 mi NW 6.9 mph - N/A   Partly Cloudy
10:00 AM 86 °F - 75 °F 63% 29.93 in 4 mi WSW 5.8 mph - -   Haze
10:00 AM 86.0 °F 95.1 °F 75.2 °F 70% 29.92 in 6.2 mi WSW 5.8 mph - N/A   Partly Cloudy
11:00 AM 86.0 °F 93.4 °F 73.4 °F 66% 29.89 in 6.2 mi South 6.9 mph - N/A   Partly Cloudy
12:00 PM 86.0 °F 95.1 °F 75.2 °F 70% 29.89 in 6.2 mi South 9.2 mph - N/A   Partly Cloudy
1:00 PM 88 °F - 76 °F 61% 29.87 in 4 mi SSE 10.4 mph - -   Haze
1:00 PM 87.8 °F 99.7 °F 77.0 °F 70% 29.86 in 6.2 mi SSE 10.4 mph - N/A   Partly Cloudy
2:00 PM 86.0 °F 95.1 °F 75.2 °F 70% 29.86 in 6.2 mi SSE 11.5 mph - N/A   Partly Cloudy
3:00 PM 87.8 °F 99.7 °F 77.0 °F 70% 29.83 in 6.2 mi SSE 12.7 mph - N/A   Partly Cloudy
4:00 PM 86 °F - 77 °F 68% 29.84 in 3 mi SSE 11.5 mph - -   Scattered Clouds
4:00 PM 86.0 °F 96.9 °F 77.0 °F 74% 29.83 in 6.2 mi SSE 11.5 mph - N/A   Partly Cloudy
5:00 PM 86.0 °F 96.9 °F 77.0 °F 74% 29.83 in 6.2 mi SSE 11.5 mph - N/A   Partly Cloudy
6:00 PM 84.2 °F 92.3 °F 75.2 °F 74% 29.83 in 6.2 mi SSE 11.5 mph - N/A   Partly Cloudy
7:00 PM 84.2 °F 92.3 °F 75.2 °F 74% 29.86 in 6.2 mi ESE 2.3 mph - N/A   Partly Cloudy
8:00 PM 84.2 °F 90.9 °F 73.4 °F 70% 29.89 in 6.2 mi NW 6.9 mph - N/A   Mostly Cloudy
9:00 PM 82.4 °F 90.9 °F 77.0 °F 84% 29.89 in 6.2 mi NW 13.8 mph - N/A   Partly Cloudy
10:00 PM 82 °F - 75 °F 75% 29.93 in 4 mi North 6.9 mph - -   Haze
10:00 PM 82.4 °F 89.5 °F 75.2 °F 79% 29.92 in 6.2 mi North 6.9 mph - N/A   Partly Cloudy
11:00 PM 82.4 °F 89.5 °F 75.2 °F 79% 29.92 in 6.2 mi NNE 6.9 mph - N/A   Partly Cloudy